DW5595 Weather Reports


time (UTC)temp
C
wind
direction
speed
KPH
gust
KPH
rain 1hr
cm
rain 24hr
cm
rain mn
cm
humidity
%
barometer
mb
20260831111526 17 146 0.0 0.0 0.00 0.00 0.00 96 1021.4
20260831110012 17 146 0.0 0.0 0.00 0.00 0.00 96 1021.3
20260831104539 17 146 0.0 0.0 0.00 0.00 0.00 96 1021.1
20260831103052 17 146 0.0 0.0 0.00 0.00 0.00 96 1020.9
20260831101530 17 146 0.0 0.0 0.00 0.00 0.00 96 1020.9
20260831100035 17 146 0.0 0.0 0.00 0.00 0.00 96 1020.7
20260831094527 17 146 0.0 0.0 0.00 0.00 0.00 96 1020.7
20260831093019 17 146 0.0 0.0 0.00 0.00 0.00 96 1020.6
20260831091511 17 146 0.0 0.0 0.00 0.00 0.00 96 1020.6
20260831090011 18 146 0.0 0.0 0.00 0.00 0.00 96 1020.6
20260831084508 18 146 0.0 0.0 0.00 0.00 0.00 96 1020.5
20260831083029 18 146 0.0 0.0 0.00 0.00 0.00 96 1020.6
20260831081525 18 146 0.0 0.0 0.00 0.00 0.00 96 1020.6
20260831080045 18 146 0.0 0.0 0.00 0.00 0.00 96 1020.6
20260831074519 18 146 0.0 0.0 0.00 0.00 0.00 96 1020.6
20260831073026 18 146 0.0 0.0 0.00 0.00 0.00 96 1020.6
20260831071512 18 146 0.0 0.0 0.00 0.00 0.00 95 1020.6
20260831070008 18 146 0.0 0.0 0.00 0.00 0.00 95 1020.7
20260831064533 18 146 0.0 0.0 0.00 0.00 0.00 96 1020.8
20260831063028 18 146 0.0 0.0 0.00 0.00 0.00 95 1020.9
20260831061528 18 146 0.0 0.0 0.00 0.00 0.00 95 1021.0
20260831060023 19 146 0.0 0.0 0.00 0.00 0.00 95 1021.0
20260831054523 19 146 0.0 0.0 0.00 0.00 0.00 95 1021.3
20260831053015 19 146 0.0 0.0 0.00 0.00 0.00 95 1021.1
20260831051534 19 146 0.0 0.0 0.00 0.00 0.00 95 1021.3
20260831050031 19 146 0.0 0.0 0.00 0.00 0.00 95 1021.2
20260831044531 20 146 0.0 0.0 0.00 0.00 0.00 95 1021.0
20260831043027 20 146 0.0 0.0 0.00 0.00 0.00 95 1021.1
20260831041523 20 146 0.0 0.0 0.00 0.00 0.00 95 1021.3
20260831040035 20 146 0.0 0.0 0.00 0.00 0.00 95 1021.6
20260831034512 20 146 0.0 0.0 0.00 0.00 0.00 94 1021.4
20260831033035 20 146 0.0 0.0 0.00 0.00 0.00 95 1021.8
20260831031540 20 146 0.0 4.8 0.00 0.00 0.00 94 1021.7
20260831030031 20 74 0.0 0.0 0.00 0.00 0.00 94 1021.6
20260831024542 21 74 0.0 0.0 0.00 0.00 0.00 94 1021.5
20260831023025 21 74 0.0 0.0 0.00 0.00 0.00 94 1021.7
20260831021518 21 23 0.0 0.0 0.00 0.00 0.00 94 1021.7
20260831020014 21 83 0.0 0.0 0.00 0.00 0.00 94 1021.7
20260831014534 21 83 0.0 0.0 0.00 0.00 0.00 93 1021.5
20260831013035 21 39 0.0 0.0 0.00 0.00 0.00 92 1021.4
20260831011530 22 148 0.0 0.0 0.00 0.00 0.00 92 1021.1
20260831010035 22 148 0.0 0.0 0.00 0.00 0.00 92 1021.0
20260831004527 22 148 0.0 0.0 0.00 0.00 0.00 91 1020.8
20260831003023 23 148 0.0 0.0 0.00 0.00 0.00 90 1020.7
20260831001517 23 148 0.0 0.0 0.00 0.00 0.00 88 1020.5
20260831000035 24 148 0.0 0.0 0.00 0.00 0.00 87 1020.5
20260830234544 24 148 0.0 0.0 0.00 0.00 0.00 85 1020.4
20260830233037 25 148 0.0 0.0 0.00 0.00 0.00 83 1020.4
20260830231530 25 148 0.0 0.0 0.00 0.00 0.00 80 1020.6
20260830230031 26 148 0.0 0.0 0.00 0.00 0.00 78 1020.5
20260830224523 26 148 0.0 0.0 0.00 0.00 0.00 79 1020.5
20260830223043 26 171 0.0 0.0 0.00 0.00 0.00 79 1020.3
20260830221534 26 170 0.0 0.0 0.00 0.00 0.00 77 1020.3
20260830220033 27 184 0.0 0.0 0.00 0.00 0.00 74 1020.5
20260830214530 27 184 0.0 1.6 0.00 0.00 0.00 73 1020.6
20260830213030 28 169 0.0 3.2 0.00 0.00 0.00 70 1020.5
20260830211532 28 198 0.0 3.2 0.00 0.00 0.00 68 1020.7
20260830210027 28 174 0.0 6.4 0.00 0.00 0.00 68 1020.6
20260830204542 28 142 0.0 3.2 0.00 0.00 0.00 71 1020.6
20260830203049 28 186 1.6 4.8 0.00 0.00 0.00 67 1020.8
20260830201538 27 145 0.0 4.8 0.00 0.00 0.00 67 1020.7
20260830200052 27 161 3.2 11.3 0.00 0.00 0.00 69 1020.8
20260830194529 28 156 1.6 9.7 0.00 0.00 0.00 72 1021.2
20260830193007 27 127 6.4 11.3 0.00 0.00 0.00 72 1021.5
20260830191507 27 140 1.6 11.3 0.00 0.00 0.00 75 1021.7
20260830190005 28 191 3.2 12.9 0.00 0.00 0.00 71 1021.8
20260830184517 28 159 1.6 8.0 0.00 0.00 0.00 72 1022.0
20260830183007 28 15 3.2 6.4 0.00 0.00 0.00 69 1022.2
20260830181507 28 138 1.6 8.0 0.00 0.00 0.00 72 1022.5
20260830180015 27 121 1.6 6.4 0.00 0.00 0.00 74 1022.7
20260830174508 26 243 0.0 4.8 0.00 0.00 0.00 73 1022.9
20260830173006 27 309 0.0 8.0 0.00 0.00 0.00 74 1022.9
20260830171506 27 330 3.2 8.0 0.00 0.00 0.00 76 1023.2
20260830170010 26 341 3.2 4.8 0.00 0.00 0.00 79 1023.6
20260830164528 25 138 1.6 4.8 0.00 0.00 0.00 83 1023.8
20260830163012 24 119 1.6 6.4 0.00 0.00 0.00 85 1024.0
20260830161509 24 154 1.6 4.8 0.00 0.00 0.00 85 1024.2
20260830160008 23 352 0.0 3.2 0.00 0.00 0.00 85 1024.1
20260830154513 23 18 1.6 3.2 0.00 0.00 0.00 86 1024.2
20260830153014 23 13 0.0 3.2 0.00 0.00 0.00 87 1024.1
20260830151513 23 11 3.2 4.8 0.00 0.00 0.00 88 1024.1
20260830150013 23 9 1.6 4.8 0.00 0.00 0.00 89 1024.2
20260830144513 22 275 0.0 3.2 0.00 0.00 0.00 90 1024.1
20260830143011 22 24 4.8 6.4 0.00 0.00 0.00 91 1023.9
20260830141514 22 17 1.6 3.2 0.00 0.00 0.00 92 1024.0
20260830140015 22 32 0.0 3.2 0.00 0.00 0.00 93 1024.0
20260830134521 22 28 0.0 3.2 0.00 0.00 0.00 93 1024.0
20260830133019 22 148 0.0 3.2 0.00 0.00 0.00 94 1024.1
20260830131549 22 351 0.0 3.2 0.00 0.00 0.00 95 1024.1
20260830130016 21 351 0.0 3.2 0.00 0.00 0.00 95 1024.2
20260830124515 21 351 0.0 3.2 0.00 0.00 0.00 95 1024.3
20260830123017 21 168 1.6 3.2 0.00 0.00 0.00 96 1024.0
20260830121517 21 175 0.0 3.2 0.00 0.00 0.00 96 1024.0
20260830120020 21 136 0.0 3.2 0.00 0.00 0.00 96 1023.9
20260830114520 21 168 0.0 3.2 0.00 0.00 0.00 96 1023.7
20260830113016 21 131 0.0 3.2 0.00 0.00 0.00 96 1023.2